Regional Weather Roundup
Issued by NWS Jackson, KY

Home | Current Version | Previous Version | Text Only | Print | Product List | Glossary On
Versions: 1 2 3 4 5 6 7 8 9 10 11 12 13 14 15 16 17 18 19 20 21 22 23 24 25 26 27 28 29 30 31 32 33 34 35 36 37 38 39 40 41 42 43 44 45 46 47 48 49 50
000
ASUS43 KJKL 190919
RWRJKL

EAST KENTUCKY HOURLY WEATHER ROUNDUP
NATIONAL WEATHER SERVICE JACKSON KY
400 AM EST FRI DEC 19 2014

NOTE: "FAIR" INDICATES FEW OR NO CLOUDS BELOW 12,000 FEET WITH
NO SIGNIFICANT WEATHER AND/OR OBSTRUCTIONS TO VISIBILITY.

* THESE REPORTS ARE NOT UNDER NWS QUALITY CONTROL AND MAY NOT
  REPORT WEATHER SUCH AS PRECIPITATION AND FOG.

KYZ079-080-083-085-087-088-110-112-115-119-120-191000
...EASTERN KENTUCKY...

CITY           SKY/WX    TMP DP  RH WIND       PRES   REMARKS
JACKSON        CLOUDY    30  24  78 CALM      30.19S
LONDON         CLOUDY    33  25  72 N3        30.20S
SOMERSET*      CLOUDY    32  27  80 NE3       30.23S
MONTICELLO*    CLOUDY    31  28  88 CALM      30.24F
MIDDLESBORO*   CLOUDY    33  28  81 NE3       30.19F
HARLAN APT*    CLOUDY    34  27  75 NW3       30.17S
BLACK MTN*       N/A     25  18  74 VRB3        N/A
PIKEVILLE APT* CLOUDY    30  25  80 CALM      30.18S
BIG SANDY*     CLOUDY    30  25  81 CALM      30.20S
MOREHEAD APT*  MOSUNNY   27  21  80 CALM      30.25R
ASHLAND*       CLEAR     27  19  74 CALM      30.22S
$$

KYZ035-036-041-042-044-050-067-078-099-191000
...CENTRAL KENTUCKY...

CITY           SKY/WX    TMP DP  RH WIND       PRES   REMARKS
MT STERLING*   CLOUDY    28  25  86 CALM      30.24S
FLEMING/MASON* CLEAR     23  21  93 CALM      30.25R
DANVILLE*      CLOUDY    30  27  86 CALM      30.23S
RICHMOND*      CLOUDY    30  25  80 CALM      30.22S
LEXINGTON      CLOUDY    28  23  81 N5        30.23S WCI  23
FRANKFORT      CLOUDY    29  22  75 N5        30.23S WCI  24
$$

KYZ091>093-OHZ055-061-077-WVZ005-015-034-035-042-191000
...SOUTHERN OHIO/WEST VIRGINIA...

CITY           SKY/WX    TMP DP  RH WIND       PRES   REMARKS
COVINGTON      MOCLDY    25  19  78 NW5       30.23S WCI  19
COLUMBUS       CLOUDY    28  21  75 NW6       30.22S WCI  22
DAYTON         CLOUDY    28  21  75 N6        30.23S WCI  22
WILMINGTON     CLOUDY    27  19  72 N7        30.21S WCI  19
HUNTINGTON     CLOUDY    28  23  81 CALM      30.22S
CHARLESTON     PTCLDY    28  22  78 VRB3      30.20S
PINEVILLE*     CLOUDY    32  28  86 MISG      30.20S
BECKLEY        CLOUDY    26  21  81 NW5       30.11S WCI  20
BLUEFIELD      CLOUDY    29  22  75 W7        30.09F WCI  22
$$

VAZ002-007-008-TNZ017-027-036-066-071-191000
...SOUTHWEST VIRGINIA/EAST TENNESSEE...

CITY           SKY/WX    TMP DP  RH WIND       PRES   REMARKS
WISE*          CLOUDY    32  27  80 N3        30.12S
JONESVILLE*    CLOUDY    34  27  75 CALM      30.18F
ABINGDON*      CLOUDY    37  24  60 N8        30.12F WCI  31
BRISTOL        CLOUDY    37  24  59 CALM      30.14F
KNOXVILLE      CLEAR     32  27  81 N3        30.17S
OAK RIDGE      CLEAR     31  28  89 CALM      30.19F
CROSSVILLE     MOCLDY    31  27  85 N5        30.16S FOG     WCI  26
NASHVILLE      CLOUDY    35  30  82 N7        30.24S WCI  29
$$

...KEY TO REMARKS...
VSB - VISIBILITY IN MILES
WCI - WIND CHILL INDEX
HX  - HEAT INDEX

$$


USA.gov is the U.S. government's official web portal to all federal, state and local government web resources and services.